Williston, ND

6:48 PM CST on December 12, 2019 (GMT -0600)
Sloulin International

Weather History for KISN - August, 2019

Change the Weather History Date:

Wednesday, August 14, 2019

  Actual Average Record
Temperature  
Mean Temperature 63 °F 70 °F  
Max Temperature 79 °F 85 °F 104 °F (2015)
Min Temperature 47 °F 55 °F 38 °F (1977)
Degree Days  
Heating Degree Days 2 1  
Month to date heating degree days 8 14  
Since 1 June heating degree days 93 158  
Since 1 July heating degree days 23 38  
Cooling Degree Days 0 6  
Month to date cooling degree days 80 94  
Year to date cooling degree days 324 357  
Since 1 June cooling degree days 318 344  
Growing Degree Days 12 (Base 50)    
Moisture  
Dew Point 52 °F    
Average Humidity 66    
Maximum Humidity 93    
Minimum Humidity 39    
Precipitation  
Precipitation 0.11 in 0.04 in 2.45 in (1972)
Month to date precipitation 1.58 0.67  
Year to date precipitation 11.24 10.34  
Sea Level Pressure  
Sea Level Pressure 30.11 in    
Wind  
Wind Speed 7 mph (SSW)    
Max Wind Speed 30 mph    
Max Gust Speed 50 mph    
Visibility 10 miles    
Events Thunderstorm    
T = Trace of Precipitation, MM = Missing Value Source: NWS Daily Summary

Daily Weather History Graph

Daily Weather History Graph

Search for Another Location

Airport or City:

Astronomy

Aug. 14, 2019 Rise Set
Actual Time 6:47 AM CDT 9:10 PM CDT
Civil Twilight 6:12 AM CDT 9:44 PM CDT
Nautical Twilight 5:29 AM CDT 10:27 PM CDT
Astronomical Twilight 4:39 AM CDT 11:16 PM CDT
Moon 9:10 PM CDT (8/14) 5:39 AM CDT (8/14)
Length of Visible Light 15h 31m
Length of Day
14h 22m
Waxing Gibbous, 99% of the Moon is Illuminated
Aug 14
Waxing Gibbous
Aug 15
Full
Aug 23
Last Quarter
Aug 30
New
Sep 5
First Quarter

Hourly Weather History & Observations

Time (CDT) Temp. Dew Point Humidity Pressure Visibility Wind Dir Wind Speed Gust Speed Precip Events Conditions
12:52 AM 52.0 °F 48.9 °F 89% 30.22 in 10.0 mi WSW 3.5 mph - N/A   Clear
1:52 AM 50.0 °F 48.0 °F 93% 30.22 in 10.0 mi Calm Calm - N/A   Clear
2:52 AM 48.9 °F 46.9 °F 93% 30.21 in 10.0 mi NW 3.5 mph - N/A   Clear
3:52 AM 48.9 °F 46.9 °F 93% 30.20 in 10.0 mi Calm Calm - N/A   Clear
4:52 AM 48.0 °F 46.0 °F 93% 30.20 in 10.0 mi Calm Calm - N/A   Clear
5:52 AM 48.0 °F 46.0 °F 93% 30.19 in 10.0 mi Calm Calm - N/A   Clear
6:52 AM 46.9 °F 45.0 °F 93% 30.19 in 10.0 mi WSW 3.5 mph - N/A   Clear
7:52 AM 50.0 °F 48.0 °F 93% 30.19 in 10.0 mi SW 3.5 mph - N/A   Scattered Clouds
8:52 AM 55.9 °F 53.1 °F 90% 30.18 in 10.0 mi SSW 3.5 mph - N/A   Scattered Clouds
9:52 AM 61.0 °F 54.0 °F 78% 30.17 in 10.0 mi SSW 8.1 mph - N/A   Clear
10:52 AM 66.0 °F 54.0 °F 65% 30.16 in 10.0 mi SSW 5.8 mph - N/A   Clear
11:52 AM 70.0 °F 53.1 °F 55% 30.14 in 10.0 mi SW 12.7 mph - N/A   Clear
12:52 PM 73.0 °F 53.1 °F 49% 30.12 in 10.0 mi South 10.4 mph 17.3 mph N/A   Clear
1:52 PM 75.0 °F 52.0 °F 44% 30.10 in 10.0 mi South 11.5 mph - N/A   Clear
2:52 PM 77.0 °F 51.1 °F 40% 30.08 in 10.0 mi South 8.1 mph - N/A   Clear
3:52 PM 79.0 °F 52.0 °F 39% 30.06 in 10.0 mi South 9.2 mph - N/A   Clear
4:52 PM 79.0 °F 53.1 °F 40% 30.02 in 10.0 mi SSW 11.5 mph - N/A   Clear
5:52 PM 75.9 °F 55.0 °F 48% 30.00 in 10.0 mi SSW 6.9 mph - N/A   Clear
6:52 PM 70.0 °F 54.0 °F 57% 30.03 in 10.0 mi North 18.4 mph 27.6 mph 0.01 in   Mostly Cloudy
7:09 PM 66.9 °F 52.0 °F 59% 30.01 in 10.0 mi NE 13.8 mph 24.2 mph N/A Thunderstorm Partly Cloudy
7:24 PM 66.9 °F 54.0 °F 63% 30.01 in 10.0 mi NE 6.9 mph - N/A   Clear
7:52 PM 69.1 °F 54.0 °F 58% 30.01 in 10.0 mi SSE 4.6 mph - N/A   Partly Cloudy
8:52 PM 66.9 °F 54.0 °F 63% 30.00 in 10.0 mi South 6.9 mph - N/A   Clear
9:52 PM 64.9 °F 57.0 °F 75% 30.00 in 10.0 mi SSE 4.6 mph - N/A   Partly Cloudy
10:52 PM 63.0 °F 57.9 °F 84% 29.99 in 10.0 mi Calm Calm - N/A   Clear
11:52 PM 61.0 °F 57.9 °F 90% 30.02 in 10.0 mi WNW 16.1 mph 26.5 mph N/A   Partly Cloudy